Location: Ca�n Batista
(41.4099°N, 1.7752°E)
Time: 14:48:57
(UTC+00:00)

Cosmos 2333 Rocket - Pass Details

Date: 03 March 2021
Orbit: 837 x 864 km, 70.8° (Epoch: 22 April)

Event Time Altitude Azimuth Distance (km) Brightness Sun altitude
Rises 18:45:18 0° 172° (S) 3,381 5.2 -11.9°
Reaches altitude 10° 18:47:59 10° 162° (SSE) 2,454 4.4 -12.4°
Maximum altitude 18:52:47 29° 103° (ESE) 1,492 2.9 -13.3°
Drops below altitude 10° 18:57:38 10° 45° (NE) 2,484 4.3 -14.2°
Sets 19:00:22 0° 35° (NE) 3,429 5.1 -14.7°
